N5ZKK Weather Reports


Display with metric or nautical units.
time (UTC)temp
F
wind
direction
speed
MPH
gust
MPH
rain 1hr
in
rain 24hr
in
rain mn
in
humidity
%
barometer
mb
20260503024540 55 0.0 0.0 0.00 0.00 0.00 82 1024.1
20260503023901 56 0 0.0 0.0 0.00 0.00 0.00 77 1023.9
20260503023515 56 0.0 0.0 0.00 0.00 0.00 77 1024.0
20260503022524 57 0.0 0.0 0.00 0.00 0.00 75 1023.9
20260503021525 59 0.0 0.0 0.00 0.00 0.00 73 1023.8
20260503020901 59 0 0.0 0.0 0.00 0.00 0.00 65 1023.3
20260503020528 60 0.0 0.0 0.00 0.00 0.00 66 1023.7
20260503015530 61 0.0 0.0 0.00 0.00 0.00 62 1023.3
20260503014532 62 0.0 0.0 0.00 0.00 0.00 59 1023.3
20260503013901 63 0 0.0 0.0 0.00 0.00 0.00 56 1022.2
20260503013537 64 0.0 0.0 0.00 0.00 0.00 56 1023.1
20260503012519 66 0.0 0.0 0.00 0.00 0.00 55 1023.0
20260503011541 67 61 1.0 2.0 0.00 0.00 0.00 49 1022.9
20260503010901 67 45 1.0 2.0 0.00 0.00 0.00 47 1021.4
20260503010523 68 45 2.0 2.0 0.00 0.00 0.00 47 1022.7
20260503005526 69 41 3.0 4.0 0.00 0.00 0.00 46 1022.7
20260503004528 70 57 3.0 6.0 0.00 0.00 0.00 44 1022.7
20260503003901 71 34 3.0 4.0 0.00 0.00 0.00 43 1020.9
20260503003531 71 34 4.0 5.0 0.00 0.00 0.00 43 1022.7
20260503002526 72 36 3.0 5.0 0.00 0.00 0.00 42 1022.7
20260503001517 73 26 4.0 5.0 0.00 0.00 0.00 42 1022.7
20260503000901 73 32 3.0 7.0 0.00 0.00 0.00 41 1020.6
20260503000519 74 33 4.0 8.0 0.00 0.00 0.00 41 1022.7
20260502235515 75 62 3.0 4.0 0.00 0.00 0.00 41 1022.7
20260502234523 74 32 4.0 6.0 0.00 0.00 0.00 40 1022.7
20260502233901 75 34 5.0 8.0 0.00 0.00 0.00 39 1020.5
20260502233526 75 35 5.0 8.0 0.00 0.00 0.00 40 1022.7
20260502232528 77 38 4.0 5.0 0.00 0.00 0.00 39 1022.7
20260502231530 77 71 4.0 7.0 0.00 0.00 0.00 39 1022.7
20260502230901 77 39 3.0 5.0 0.00 0.00 0.00 37 1020.1
20260502230532 77 40 3.0 6.0 0.00 0.00 0.00 38 1022.5
20260502225516 78 48 3.0 5.0 0.00 0.00 0.00 36 1022.7
20260502224519 75 27 4.0 6.0 0.00 0.00 0.00 40 1022.5
20260502223901 76 13 5.0 10.0 0.00 0.00 0.00 38 1020.3
20260502223520 76 13 5.0 10.0 0.00 0.00 0.00 38 1022.6
20260502222523 75 46 4.0 6.0 0.00 0.00 0.00 41 1022.7
20260502221525 75 21 6.0 9.0 0.00 0.00 0.00 41 1022.7
20260502220901 75 14 5.0 9.0 0.00 0.00 0.00 39 1020.4
20260502220527 76 15 6.0 10.0 0.00 0.00 0.00 39 1022.7
20260502215530 76 16 3.0 5.0 0.00 0.00 0.00 39 1022.7
20260502214526 76 8 4.0 8.0 0.00 0.00 0.00 38 1022.9
20260502213901 75 2 5.0 8.0 0.00 0.00 0.00 39 1020.8
20260502213516 75 2 5.0 8.0 0.00 0.00 0.00 40 1023.0
20260502212519 75 31 4.0 9.0 0.00 0.00 0.00 41 1023.1
20260502211521 75 14 4.0 6.0 0.00 0.00 0.00 41 1023.3
20260502210901 74 20 5.0 7.0 0.00 0.00 0.00 42 1021.3
20260502210523 75 21 6.0 8.0 0.00 0.00 0.00 42 1023.4
20260502205545 74 9 5.0 8.0 0.00 0.00 0.00 43 1023.7
20260502204527 74 14 3.0 5.0 0.00 0.00 0.00 43 1023.8
20260502203901 75 30 5.0 7.0 0.00 0.00 0.00 41 1021.7
20260502203530 75 30 6.0 8.0 0.00 0.00 0.00 42 1023.9
20260502202532 73 39 4.0 6.0 0.00 0.00 0.00 44 1024.0
20260502201516 74 92 3.0 5.0 0.00 0.00 0.00 45 1024.1
20260502200901 73 42 6.0 10.0 0.00 0.00 0.00 43 1022.2
20260502200519 74 43 7.0 10.0 0.00 0.01 0.00 43 1024.1
20260502195521 74 34 5.0 10.0 0.00 0.01 0.00 44 1024.2
20260502194523 75 32 5.0 8.0 0.00 0.01 0.00 42 1024.3
20260502193901 74 54 4.0 5.0 0.00 0.00 0.00 42 1022.2
20260502193545 75 55 4.0 6.0 0.00 0.01 0.00 43 1024.3
20260502192607 75 48 5.0 10.0 0.00 0.01 0.00 41 1024.4
20260502191529 74 24 5.0 10.0 0.00 0.01 0.00 44 1024.4
20260502190901 73 43 5.0 8.0 0.00 0.00 0.00 45 1022.5
20260502190526 74 44 5.0 9.0 0.00 0.01 0.00 46 1024.5
20260502185516 74 37 5.0 9.0 0.00 0.01 0.00 45 1024.8
20260502184518 72 18 4.0 7.0 0.00 0.01 0.00 49 1024.8
20260502183901 73 50 4.0 8.0 0.00 0.00 0.00 46 1022.8
20260502183540 73 51 4.0 9.0 0.00 0.01 0.00 47 1024.8
20260502182522 73 43 3.0 6.0 0.00 0.01 0.00 49 1024.9
20260502181545 72 8 6.0 10.0 0.00 0.01 0.00 52 1025.0
20260502180901 70 31 3.0 7.0 0.00 0.00 0.00 53 1023.3
20260502180527 71 31 4.0 7.0 0.00 0.01 0.00 53 1025.0
20260502163901 69 45 5.0 11.0 0.00 0.18 0.00 56 1024.3
20260502163549 69 45 6.0 12.0 0.00 0.18 0.00 57 1025.8
20260502162526 68 19 6.0 9.0 0.00 0.19 0.00 57 1025.8
20260502161522 67 31 6.0 11.0 0.00 0.19 0.00 59 1025.8
20260502160901 67 15 6.0 12.0 0.00 0.18 0.00 59 1024.6
20260502160519 67 15 7.0 12.0 0.00 0.19 0.00 59 1025.8
20260502151549 67 21 5.0 7.0 0.00 0.19 0.00 57 1025.9
20260502150901 65 21 5.0 7.0 0.00 0.18 0.00 58 1024.7
20260502150532 66 21 5.0 7.0 0.00 0.19 0.00 59 1025.8
20260502130523 49 307 0.0 2.0 0.00 0.29 0.00 99 1024.2
20260502123529 45 305 1.0 3.0 0.00 0.38 0.00 99 1024.1
20260502122531 45 274 3.0 4.0 0.00 0.40 0.00 99 1024.0
20260502121516 44 267 1.0 3.0 0.00 0.41 0.00 99 1023.9
20260502120901 43 0 0.0 0.0 0.00 0.42 0.00 99 1025.3
20260502120518 43 0.0 0.0 0.00 0.42 0.00 99 1023.7
20260502115521 43 0.0 0.0 0.00 0.44 0.00 99 1023.5
20260502114522 43 0.0 0.0 0.00 0.48 0.00 99 1023.3
20260502113901 43 0 0.0 0.0 0.00 0.48 0.00 99 1024.8
20260502113544 43 0.0 0.0 0.00 0.48 0.00 99 1023.3
20260502112526 43 0.0 0.0 0.00 0.48 0.00 99 1023.3
20260502111528 43 0.0 0.0 0.00 0.48 0.00 99 1023.3
20260502110901 43 0 0.0 0.0 0.00 0.48 0.00 99 1024.7
20260502110525 43 0.0 0.0 0.00 0.48 0.00 99 1023.2
20260502105515 43 0.0 0.0 0.00 0.48 0.00 99 1023.2
20260502104517 43 0.0 0.0 0.00 0.48 0.00 99 1023.2
20260502103901 43 0 0.0 0.0 0.00 0.48 0.00 99 1024.4
20260502103519 44 0.0 0.0 0.00 0.48 0.00 99 1022.9
20260502102541 44 0.0 0.0 0.00 0.48 0.00 99 1022.9
20260502101524 44 0.0 0.0 0.00 0.48 0.00 99 1022.9
20260502100901 44 0 0.0 0.0 0.00 0.49 0.00 99 1024.1
20260502100526 45 0.0 0.0 0.00 0.50 0.00 99 1022.7
20260502091519 46 270 4.0 5.0 0.00 0.60 0.00 99 1022.1
20260502090901 46 272 3.0 4.0 0.00 0.60 0.00 99 1023.0
20260502090521 46 272 4.0 5.0 0.00 0.60 0.00 99 1021.9
20260502071520 46 0.0 0.0 0.00 0.61 0.00 99 1021.4
20260502070901 46 0 0.0 0.0 0.00 0.60 0.00 99 1022.5
20260502070523 46 0.0 0.0 0.00 0.61 0.00 99 1021.4
20260502065525 46 0.0 0.0 0.00 0.61 0.00 99 1021.4
20260502064528 46 0.0 0.0 0.00 0.61 0.00 99 1021.5
20260502063901 46 0 0.0 0.0 0.00 0.60 0.00 99 1022.6
20260502063530 46 0.0 0.0 0.00 0.61 0.00 99 1021.5
20260502062531 47 0.0 0.0 0.00 0.61 0.00 99 1021.4
20260502061515 47 0.0 0.0 0.00 0.61 0.00 99 1021.4
20260502060901 46 270 0.0 2.0 0.00 0.60 0.00 99 1022.4
20260502060516 47 270 0.0 3.0 0.00 0.61 0.00 99 1021.4
20260502054522 47 0.0 0.0 0.00 0.61 0.00 99 1021.6
20260502053901 47 0 0.0 0.0 0.00 0.60 0.00 99 1022.3
20260502053516 48 0.0 0.0 0.00 0.61 0.00 99 1021.4
20260502052524 48 255 1.0 3.0 0.00 0.61 0.00 99 1021.2
20260502051547 48 0.0 0.0 0.00 0.62 0.00 99 1021.2
20260502050901 47 0 0.0 0.0 0.00 0.61 0.00 99 1022.3
20260502050529 48 0.0 0.0 0.00 0.62 0.00 99 1021.3
20260502045531 48 0.0 0.0 0.00 0.62 0.62 99 1021.0
20260502044515 48 0.0 0.0 0.00 0.62 0.62 99 1021.2
20260502043901 48 0 0.0 0.0 0.00 0.63 0.61 99 1022.0
20260502043518 49 0.0 0.0 0.00 0.63 0.62 99 1021.2
20260502042520 49 0.0 0.0 0.00 0.63 0.62 99 1021.2
20260502041542 49 0.0 0.0 0.00 0.63 0.62 99 1021.4
20260502040901 49 225 0.0 1.0 0.00 0.63 0.61 99 1022.0
20260502040524 50 225 0.0 2.0 0.00 0.63 0.62 99 1021.3
20260502035527 50 0.0 0.0 0.00 0.63 0.62 98 1021.1
20260502034529 50 0.0 0.0 0.00 0.63 0.62 97 1021.0
20260502033901 50 0 0.0 0.0 0.00 0.63 0.61 96 1021.5
20260502033531 51 0.0 0.0 0.00 0.63 0.62 96 1020.9
20260502032516 51 354 2.0 4.0 0.00 0.63 0.62 94 1020.8
20260502031517 51 14 2.0 3.0 0.00 0.63 0.62 93 1020.6
20260502030901 51 358 1.0 3.0 0.00 0.63 0.61 93 1021.0
20260502030540 52 358 2.0 3.0 0.00 0.63 0.62 93 1020.6
20260502025516 52 28 2.0 4.0 0.00 0.63 0.62 94 1020.4